星链-37543(STARLINK-37543)

导读

STARLINK-37543(NORAD编号68911)是美国SpaceX公司星链(Starlink)星座的一颗低轨互联网卫星,隶属于全球最大的近地轨道卫星互联网项目。 星链星座旨在为全球尤其是网络覆盖薄弱地区提供高速低延迟宽带服务,该卫星批量生产、依托可复用猎鹰9火箭发射,运行在近地轨道,负责提供天基通信传输服务,是星链星座全球组网中的一员,助力星座完成全球覆盖的部署目标。

基本信息
目录编号:
68911
目录名称:
STARLINK-37543
国际标识:
2026-097S
轨道中心:
EARTH
卫星名称:
星链-37543
卫星全名:
星链-37543(STARLINK-37543)
卫星状态:
在轨 (已飞行134 天)
发射日期:
2026-04-30 UTC
国别 :
美国 (US)
星等 :
--
轨道信息
数据来源 国际轨道数据
星历时间: 2026-09-10T20:33:37+0800
15小时前
查看轨道信息
半长轴: 6843.662km
偏心率: 0.00028
轨道倾角: 97.283°
近地点辐角 112.532°
升交点赤经 87.818°
平近点角 247.622°
近地点: 463.608km
远地点: 467.442km
周期: 93.906分钟
每日圈数: 15.334514
详细信息
固有亮度:
5
最大亮度:
2.5
卫星平台:
Starlink V1.0
覆盖范围:
全球
运营商:
太空探索技术公司
运营商所在国:
美国
制造商(研发单位):
太空探索技术公司
制造商所在国:
美国
使用方式:
暂无
卫星简介
Starlink 计划是 SpaceX 推出的全球卫星互联网项目,通过发射低轨道卫星,为全球尤其是偏远地区提供高速、低延迟的互联网服务。自 2019 年起,Starlink 已部署数千颗卫星,旨在缩小全球数字鸿沟,推动互联网普及。该项目还为军事、航空等行业提供通信支持,带来广泛经济效益。
2D轨道图
3D轨道图
轨道高度分析图
轨道倾角分析图
轨道综合分析图
查看轨道综合分析图
交会数据列表
事件ID 空间交会对象 最接近时刻(TCA) 交会距离 交会风险概率(CRP) 交会风险指数(CRI) 操作
CDM_260911-194306-412106-891121
2026-09-11T
19:43:36+0000
2.062 km
极远距离
2.604061E-6 低风险 0.43
CDM_260911-224705-388706-891121
2026-09-11T
22:47:00+0000
2.360 km
极远距离
1.786829E-6 低风险 0.4
CDM_260910-102204-868106-891122
2026-09-10T
10:22:09+0000
2.828 km
极远距离
1.420223E-6 低风险 0.38
CDM_260911-194306-411306-891121
2026-09-11T
19:43:17+0000
2.940 km
极远距离
1.349376E-6 低风险 0.38
CDM_260912-192806-371106-891121
2026-09-12T
19:28:12+0000
2.862 km
极远距离
8.715288E-7 极低风险 0.34
CDM_260912-170706-371106-891121
2026-09-12T
17:07:03+0000
2.891 km
极远距离
8.586353E-7 极低风险 0.34
与全量物体交会距离演化趋势
与全量物体交会风险概率演化趋势